sat.trackr.live / text

‹ back to catalog

SJ-12

NORAD 36596 · 2010-027A

PAYLOAD ACTIVE UNKNOWN

§ Identity

Operator
Country
PRC
Launch date
2010-06-15
Launch site
JSC
Launch vehicle
Mass (kg)
RCS (m²)
3.26

External: N2YO · Heavens-Above · Gunter

§ Orbital elements

Epoch: 2026-05-25T02:23:17.141280Z

Period
94.96 min
Inclination
97.7630°
Eccentricity
0.0007082
Mean motion
15.16476366 rev/d
Perigee alt
511.6 km
Apogee alt
521.4 km
Semi-major
6,894.6 km
B*
2.1146e-4
RAAN
162.2480°
Arg perigee
162.0605°
Mean anomaly
198.0879°
Rev number
87,136

§ Raw data

SJ-121 36596U 10027A   26145.09950395  .00004048  00000+0  21146-3 0  99992 36596  97.7630 162.2480 0007082 162.0605 198.0879 15.16476366871365

JSON: /api/v1/satellites/36596 · /tle

For live sub-satellite position, see the globe view (requires WebGL).

§ Visibility from observer

Set your observer location to see the next 7 days of passes ≥ 10°. The values pass through the URL so the page stays shareable.

No JS? Fill the form by hand. The geolocation button needs JavaScript.